This demonstration page uses our WeatherBlox Daily Observations layout. Learn more.

Hourly Observations for April 17, 2019

Temp ( °F °C ) Dew Point ( °F °C ) Humidity (%) Winds ( mph kmh ) Pressure ( in mb ) Visibility ( mi km ) Precip ( " mm )
12:15 am 00:15 Clear 54 12 43 6 67 67 Calm 30.03 1017 10 16.09344 0 0
12:35 am 00:35 Clear 52 11 45 7 77 77 SSW 5 7 30 1016 10 16.09344 0 0
12:55 am 00:55 Clear 50 10 45 7 82 82 SW 5 7 30 1016 10 16.09344 0 0
1:15 am 01:15 Clear 52 11 45 7 77 77 Calm 30 1016 10 16.09344 0 0
1:35 am 01:35 Clear 54 12 45 7 72 72 S 3 6 30 1016 10 16.09344 0 0
1:55 am 01:55 Clear 54 12 43 6 67 67 Calm 30 1016 10 16.09344 0 0
2:15 am 02:15 Clear 54 12 43 6 67 67 Calm 30 1016 10 16.09344 0 0
2:35 am 02:35 Clear 52 11 43 6 72 72 SSE 5 7 30 1016 10 16.09344 0 0
2:55 am 02:55 Clear 48 9 45 7 87 87 Calm 30.03 1017 10 16.09344 0 0
3:15 am 03:15 Clear 48 9 45 7 87 87 Calm 30.03 1017 10 16.09344 0 0
3:35 am 03:35 Mostly Cloudy 48 9 45 7 87 87 SW 3 6 30.03 1017 10 16.09344 0 0
3:55 am 03:55 Cloudy 50 10 45 7 82 82 Calm 30 1016 10 16.09344 0 0
4:15 am 04:15 Cloudy 54 12 45 7 72 72 Calm 30 1016 10 16.09344 0 0
4:35 am 04:35 Cloudy 54 12 45 7 72 72 Calm 30.03 1017 10 16.09344 0 0
4:55 am 04:55 Cloudy 54 12 46 8 77 77 Calm 30.03 1017 10 16.09344 0 0
5:15 am 05:15 Cloudy 52 11 46 8 82 82 NNE 6 9 30.03 1017 10 16.09344 0 0
5:35 am 05:35 Cloudy 54 12 45 7 72 72 NNE 9 15 30.03 1017 10 16.09344 0 0
5:55 am 05:55 Cloudy 52 11 45 7 77 77 NNE 9 15 30.06 1018 10 16.09344 0 0
6:15 am 06:15 Partly Cloudy 52 11 43 6 72 72 NNE 8 13 30.06 1018 10 16.09344 0 0
6:35 am 06:35 Partly Cloudy 52 11 43 6 72 72 NNE 10 17 30.06 1018 10 16.09344 0 0
6:55 am 06:55 Cloudy 52 11 43 6 72 72 NE 7 11 30.06 1018 10 16.09344 0 0
7:15 am 07:15 Cloudy 52 11 43 6 72 72 NE 8 13 30.09 1019 10 16.09344 0 0
7:35 am 07:35 Cloudy 54 12 43 6 67 67 NE 6 9 30.09 1019 10 16.09344 0 0
7:55 am 07:55 Cloudy 54 12 43 6 67 67 NNE 6 9 30.09 1019 10 16.09344 0 0
8:15 am 08:15 Cloudy 54 12 43 6 67 67 NE 7 11 30.09 1019 10 16.09344 0 0
8:35 am 08:35 Cloudy 54 12 43 6 67 67 NE 5 7 30.09 1019 10 16.09344 0 0
8:55 am 08:55 Cloudy 54 12 45 7 72 72 NNE 6 9 30.12 1020 10 16.09344 0 0
9:15 am 09:15 Cloudy 55 13 45 7 67 67 NE 5 7 30.12 1020 10 16.09344 0 0
9:35 am 09:35 Cloudy 57 14 45 7 63 63 NE 6 9 30.12 1020 10 16.09344 0 0
9:55 am 09:55 Cloudy 59 15 46 8 63 63 NE 3 6 30.12 1020 10 16.09344 0 0
10:15 am 10:15 Cloudy 59 15 46 8 63 63 NNE 5 7 30.12 1020 10 16.09344 0 0
10:35 am 10:35 Cloudy 59 15 46 8 63 63 NNE 5 7 30.12 1020 10 16.09344 0 0
10:55 am 10:55 Partly Cloudy 61 16 46 8 59 59 NNE 6 9 30.12 1020 10 16.09344 0 0
11:15 am 11:15 Sunny 61 16 46 8 59 59 NNE 5 7 30.12 1020 10 16.09344 0 0
11:35 am 11:35 Partly Cloudy 63 17 48 9 59 59 NNE 6 9 30.12 1020 10 16.09344 0 0
11:55 am 11:55 Partly Cloudy 64 18 50 10 60 60 E 6 9 30.12 1020 10 16.09344 0 0
12:15 pm 12:15 Partly Cloudy 64 18 48 9 56 56 NE 6 9 30.12 1020 7 11.265408 0 0
12:35 pm 12:35 Mostly Cloudy 66 19 50 10 56 56 E 6 9 30.12 1020 10 16.09344 0 0
12:55 pm 12:55 Mostly Cloudy 66 19 48 9 52 52 Calm 30.09 1019 10 16.09344 0 0
1:15 pm 13:15 Mostly Cloudy 68 20 48 9 49 49 Calm 30.09 1019 10 16.09344 0 0
1:35 pm 13:35 Partly Cloudy 70 21 48 9 46 46 NE 6 9 30.09 1019 10 16.09344 0 0
1:55 pm 13:55 Sunny 70 21 50 10 50 50 ESE 3 6 30.09 1019 10 16.09344 0 0
2:15 pm 14:15 Partly Cloudy 70 21 50 10 50 50 NE 6 9 30.09 1019 7 11.265408 0 0
2:35 pm 14:35 Partly Cloudy 72 22 50 10 47 47 ENE 6 9 30.09 1019 10 16.09344 0 0
2:55 pm 14:55 Sunny 72 22 50 10 47 47 E 7 11 30.09 1019 10 16.09344 0 0
3:15 pm 15:15 Sunny 72 22 50 10 47 47 ENE 10 17 30.09 1019 10 16.09344 0 0
3:35 pm 15:35 Sunny 72 22 50 10 47 47 E 9 15 30.06 1018 10 16.09344 0 0
3:55 pm 15:55 Sunny 72 22 50 10 47 47 E 12 19 30.06 1018 10 16.09344 0 0
4:15 pm 16:15 Sunny 70 21 50 10 50 50 ESE 12 19 30.06 1018 10 16.09344 0 0
4:35 pm 16:35 Sunny 70 21 50 10 50 50 ENE 9 15 30.06 1018 10 16.09344 0 0
4:55 pm 16:55 Sunny 70 21 52 11 53 53 E 12 19 30.06 1018 10 16.09344 0 0
5:15 pm 17:15 Sunny 70 21 50 10 50 50 E 7 11 30.03 1017 10 16.09344 0 0
5:35 pm 17:35 Sunny 70 21 50 10 50 50 ESE 8 13 30.03 1017 10 16.09344 0 0
5:55 pm 17:55 Sunny 68 20 50 10 53 53 ESE 9 15 30.06 1018 10 16.09344 0 0
6:15 pm 18:15 Sunny 68 20 50 10 53 53 E 10 17 30.06 1018 10 16.09344 0 0
6:35 pm 18:35 Sunny 66 19 50 10 56 56 ESE 7 11 30.06 1018 10 16.09344 0 0
6:55 pm 18:55 Sunny 66 19 50 10 56 56 ESE 9 15 30.06 1018 10 16.09344 0 0
7:15 pm 19:15 Sunny 66 19 48 9 52 52 ESE 10 17 30.06 1018 10 16.09344 0 0
7:35 pm 19:35 Sunny 64 18 48 9 56 56 ESE 6 9 30.06 1018 10 16.09344 0 0
7:55 pm 19:55 Clear 64 18 46 8 52 52 ESE 8 13 30.06 1018 10 16.09344 0 0
8:15 pm 20:15 Clear 63 17 46 8 56 56 ESE 9 15 30.06 1018 10 16.09344 0 0
8:35 pm 20:35 Clear 63 17 46 8 56 56 E 3 6 30.09 1019 10 16.09344 0 0
8:55 pm 20:55 Clear 63 17 46 8 56 56 ESE 8 13 30.09 1019 10 16.09344 0 0
9:15 pm 21:15 Clear 61 16 46 8 59 59 ESE 9 15 30.09 1019 10 16.09344 0 0
9:35 pm 21:35 Clear 61 16 46 8 59 59 ESE 12 19 30.09 1019 10 16.09344 0 0
9:55 pm 21:55 Clear 59 15 46 8 63 63 ESE 12 19 30.09 1019 10 16.09344 0 0
10:15 pm 22:15 Clear 59 15 46 8 63 63 ESE 10 17 30.09 1019 10 16.09344 0 0
10:35 pm 22:35 Clear 57 14 45 7 63 63 ESE 10 17 30.12 1020 10 16.09344 0 0
10:55 pm 22:55 Clear 57 14 45 7 63 63 E 8 13 30.09 1019 10 16.09344 0 0
11:15 pm 23:15 Clear 55 13 45 7 67 67 E 8 13 30.12 1020 10 16.09344 0 0
11:35 pm 23:35 Clear 55 13 46 8 72 72 E 7 11 30.12 1020 10 16.09344 0 0
11:55 pm 23:55 Clear 55 13 46 8 72 72 ESE 8 13 30.12 1020 10 16.09344 0 0

Powered by AerisWeather